Simultaneous Nadir Overpasses (SNOs) Predictions

Prediction of SNOs between METOP-A and NOAA-19 Satellite Orbit:

Table of predicted SNOs for the next 14.0 days since TLE Epoch: 3/20/2021
Index Date (METOP-A) Time (METOP-A) Lat,Lon (METOP-A) SZA (METOP-A ) Date (NOAA-19) Time (NOAA-19) Lat,Lon (NOAA-19) SZA (NOAA-19 ) Distance(km) Time Diff (sec)
1 03/28/2021 06:48:28 -80.85, -91.11 102.17 03/28/2021 06:47:19 -80.86, -91.24 102.18 2.45 69
2 03/28/2021 07:39:08 80.87, 76.43 77.84 03/28/2021 07:38:13 80.86, 76.28 77.82 2.97 55
3 03/28/2021 08:29:50 -80.84,-116.60 102.21 03/28/2021 08:29:19 -80.86,-116.59 102.20 1.30 31
4 03/28/2021 09:20:30 80.86, 50.93 77.80 03/28/2021 09:20:13 80.86, 50.93 77.80 0.25 17
5 03/28/2021 10:11:11 -80.86,-141.74 102.22 03/28/2021 10:11:18 -80.85,-141.57 102.22 3.14 7
6 03/28/2021 11:01:52 80.85, 25.44 77.76 03/28/2021 11:02:13 80.85, 25.58 77.77 2.63 21
7 03/28/2021 11:52:33 -80.85,-167.24 102.26 03/28/2021 11:53:19 -80.86,-167.28 102.25 1.24 46



Historial Predications of SNOs between METOP-A and NOAA-19
